Regional Weather Roundup
Issued by NWS

Home | Current Version | Previous Version | Text Only | Print | Product List | Glossary Off
Versions: 1 2 3 4 5 6 7 8 9 10 11 12 13 14 15 16 17 18 19 20 21 22 23 24 25 26 27 28 29 30 31 32 33 34 35 36 37 38 39 40 41 42 43 44 45 46 47 48 49 50

000
ASUS43 KOAX 230510
RWRNE

WEATHER ROUNDUP FOR NEBRASKA
NATIONAL WEATHER SERVICE OMAHA NE
1200 AM CDT SAT JUL 23 2016

NOTES: SATELLITE DATA IS BEING USED TO AUGMENT CLOUD COVER ABOVE
       12000 FEET.
       "FAIR" INDICATES FEW OR NO CLOUDS BELOW 12,000 FEET WITH NO
       SIGNIFICANT WEATHER AND/OR OBSTRUCTIONS TO VISIBILITY.

  * THESE STATIONS DO NOT REPORT WEATHER SUCH AS RAIN...SNOW OR FOG.

NEZ001>004-019>022-054>056-230600-
NEBRASKA PANHANDLE

CITY           SKY/WX    TMP DP  RH WIND       PRES   REMARKS
SCOTTSBLUFF    CLOUDY    68  59  73 E10       30.02F
ALLIANCE       CLOUDY    67  59  75 SE12      30.01S
CHADRON        CLOUDY    77  58  51 S21G31    29.90F
KIMBALL        CLOUDY    69  62  76 SE13      30.10R
SIDNEY         CLOUDY    68  61  78 SE16      30.07S
$$

NEZ057>060-069>072-079>082-230600-
SOUTHWEST NEBRASKA

CITY           SKY/WX    TMP DP  RH WIND       PRES   REMARKS
NORTH PLATTE   CLOUDY    73  62  68 NW21G29   30.04R THUNDER
IMPERIAL       TSTM      72  69  90 N13       30.08R
LEXINGTON      CLOUDY    78  71  78 E6        29.93S
MCCOOK         CLOUDY    78  71  79 NE5       29.93R
OGALLALA       CLOUDY    69  62  78 SE14      30.04F
$$

NEZ005>010-023>029-035>040-094-230600-
NORTH CENTRAL NEBRASKA

CITY           SKY/WX    TMP DP  RH WIND       PRES   REMARKS
VALENTINE      CLOUDY    84  74  71 E12       29.91F HX  91
AINSWORTH      CLOUDY    82  77  86 E12       29.92F
BROKEN BOW     CLOUDY    76  73  91 N5        29.96S
O`NEILL        CLOUDY    83  76  80 SE9       29.93F HX  92
ORD            CLOUDY    79  76  90 CALM      29.91F
THEDFORD       CLOUDY    72  65  79 S22G40    30.00R
$$

NEZ041-046>049-061>064-073>077-083>087-230600-
SOUTH CENTRAL NEBRASKA

CITY           SKY/WX    TMP DP  RH WIND       PRES   REMARKS
GRAND ISLAND   CLOUDY    78  74  87 SE7       29.93F
AURORA         CLOUDY    76  74  92 SE3       29.92F
HASTINGS       CLOUDY    80  71  74 SE9       29.93F
HEBRON         CLOUDY    76  67  75 CALM      29.92R
HOLDREGE       PTCLDY    76  69  78 E6        29.92F
KEARNEY *      CLOUDY    79  70  73 E8        29.93F
YORK           CLOUDY    77  72  83 SE9       29.93F
$$

NEZ011>018-030>034-042>045-230600-
NORTHEAST NEBRASKA

CITY           SKY/WX    TMP DP  RH WIND       PRES   REMARKS
NORFOLK        CLOUDY    80  76  87 NE7       29.92F
ALBION         MOCLDY    78  73  85 NE3       29.92F
BLAIR          CLOUDY    82  79  90 CALM      29.93S HX  93
FREMONT        CLOUDY    82  76  81 S5        29.93R HX  90
TEKAMAH        PTCLDY    82  78  88 SE3       29.91R HX  91
WAYNE          CLOUDY    82  80  94 E8        29.93S HX  94
$$

NEZ050>053-065>068-078-088>093-230600-
SOUTHEAST NEBRASKA

CITY           SKY/WX    TMP DP  RH WIND       PRES   REMARKS
LINCOLN        CLOUDY    80  71  74 S5        29.92F
OMAHA EPPLEY   CLOUDY    84  79  85 SE9       29.91S HX  96
BEATRICE       CLOUDY    79  71  75 E3        29.93R
FALLS CITY     TSTM      82  78  88 SE8       29.94R HX  91
NEBRASKA CITY  CLOUDY    81  76  85 S8        29.94S
PLATTSMOUTH    CLOUDY    82  81  95 SE6       29.93S HX  94
$$

NEZ044-045-051>053-067-230600-
OMAHA AREA

CITY           SKY/WX    TMP DP  RH WIND       PRES   REMARKS
OMAHA EPPLEY   CLOUDY    84  79  85 SE9       29.91S HX  96
BLAIR          CLOUDY    82  79  90 CALM      29.93S HX  93
FREMONT        CLOUDY    82  76  81 S5        29.93R HX  90
MILLARD        PTCLDY    84  81  89 SE5       29.92R HX  98
OFFUTT AFB     PTCLDY    82  80  94 SE6       29.92R HX  95
PLATTSMOUTH    CLOUDY    82  81  95 SE6       29.93S HX  94
WAHOO          FAIR      78  75  90 CALM      29.92S
$$



USA.gov is the U.S. government's official web portal to all federal, state and local government web resources and services.